Weather History for Gustavus, AK

Change the Weather History Date:

Saturday, March 8, 2014

  Actual Average Record
Temperature  
Mean Temperature 32 °F -  
Max Temperature 37 °F 39 °F 48 °F (2005)
Min Temperature 28 °F 25 °F -10 °F (1989)
Degree Days  
Heating Degree Days 32    
Moisture  
Dew Point 31 °F    
Average Humidity 93    
Maximum Humidity 100    
Minimum Humidity 86    
Precipitation  
Precipitation 0.00 in - - ()
Sea Level Pressure  
Sea Level Pressure 29.16 in    
Wind  
Wind Speed 3 mph (NNW)    
Max Wind Speed 13 mph    
Max Gust Speed 18 mph    
Visibility 8 miles    
Events      
Averages and records for this station are not official NWS values.
T = Trace of Precipitation, MM = Missing Value Source: NWS Daily Summary

Daily Weather History Graph

Daily Weather History Graph

Search for Another Location

Airport:

Trip Planner

Search our weather history database for the weather conditions in past years. The results will help you decide how hot, cold, wet, or windy it might be!

Date:

Astronomy

Mar. 08, 2014 Rise Set
Actual Time 6:38 AM AKST 5:50 PM AKST
Civil Twilight 5:58 AM AKST 6:29 PM AKST
Nautical Twilight 5:12 AM AKST 7:15 PM AKST
Astronomical Twilight 4:25 AM AKST 8:03 PM AKST
Moon 10:01 AM AKST (3/8) 2:18 AM AKST (3/8)
Length of Visible Light 12h 30m
Length of Day
11h 11m
First Quarter, 53% of the Moon is Illuminated
Mar 8
First Quarter
Mar 16
Full
Mar 23
Last Quarter
Mar 30
New
Apr 7
First Quarter

Hourly Weather History & Observations

Time (AKST) Temp. Windchill Dew Point Humidity Pressure Visibility Wind Dir Wind Speed Gust Speed Precip Events Conditions
12:16 AM 28.4 °F - 26.6 °F 93% 29.35 in 10.0 mi Calm Calm - N/A   Overcast
12:36 AM 28.4 °F 24.6 °F 26.6 °F 93% 29.35 in 10.0 mi North 3.5 mph - N/A   Overcast
12:56 AM 30.2 °F 25.4 °F 28.4 °F 93% 29.35 in 5.0 mi NW 4.6 mph - N/A   Mostly Cloudy
1:16 AM 30.2 °F 23.4 °F 26.6 °F 86% 29.34 in 7.0 mi NW 6.9 mph - N/A   Overcast
1:36 AM 30.2 °F 24.3 °F 28.4 °F 93% 29.33 in 10.0 mi NW 5.8 mph - N/A   Overcast
1:56 AM 30.2 °F 25.4 °F 28.4 °F 93% 29.32 in 7.0 mi NW 4.6 mph - N/A   Overcast
2:16 AM 30.2 °F - 28.4 °F 93% 29.32 in 9.0 mi Calm Calm - N/A   Overcast
2:36 AM 30.2 °F 26.7 °F 28.4 °F 93% 29.31 in 10.0 mi NNW 3.5 mph - N/A   Overcast
2:56 AM 30.2 °F 25.4 °F 28.4 °F 93% 29.29 in 4.0 mi NW 4.6 mph - N/A   Overcast
3:16 AM 30.2 °F 25.4 °F 28.4 °F 93% 29.28 in 10.0 mi NW 4.6 mph - N/A   Overcast
3:36 AM 30.2 °F 23.4 °F 28.4 °F 93% 29.27 in 6.0 mi NNW 6.9 mph - N/A   Overcast
3:56 AM 30.2 °F - 28.4 °F 93% 29.26 in 1.8 mi Calm Calm - N/A   Overcast
4:16 AM 30.2 °F 25.4 °F 28.4 °F 93% 29.25 in 2.0 mi NW 4.6 mph - N/A   Overcast
4:36 AM 30.2 °F 26.7 °F 28.4 °F 93% 29.24 in 2.5 mi NW 3.5 mph - N/A   Overcast
4:56 AM 30.2 °F - 28.4 °F 93% 29.24 in 1.8 mi Calm Calm - N/A   Overcast
5:16 AM 30.2 °F - 28.4 °F 93% 29.23 in 1.0 mi Calm Calm - N/A   Overcast
5:36 AM 30.2 °F - 28.4 °F 93% 29.22 in 2.0 mi Calm Calm - N/A   Overcast
5:56 AM 30.2 °F - 28.4 °F 93% 29.21 in 1.0 mi Calm Calm - N/A   Overcast
6:16 AM 30.2 °F - 28.4 °F 93% 29.20 in 1.8 mi Calm Calm - N/A   Overcast
6:36 AM 30.2 °F - 28.4 °F 93% 29.20 in 1.2 mi Calm Calm - N/A   Overcast
6:56 AM 30.2 °F - 28.4 °F 93% 29.19 in 1.0 mi Calm Calm - N/A   Overcast
7:16 AM 30.2 °F - 28.4 °F 93% 29.18 in 1.0 mi Calm Calm - N/A   Overcast
7:36 AM 30.2 °F - 28.4 °F 93% 29.18 in 2.5 mi Calm Calm - N/A   Overcast
7:56 AM 30.2 °F - 30.2 °F 100% 29.17 in 5.0 mi Calm Calm - N/A   Overcast
8:16 AM 32.0 °F - 30.2 °F 93% 29.17 in 10.0 mi Calm Calm - N/A   Overcast
8:36 AM 32.0 °F - 30.2 °F 93% 29.18 in 10.0 mi Calm Calm - N/A   Overcast
8:56 AM 32.0 °F - 30.2 °F 93% 29.17 in 3.0 mi Calm Calm - N/A   Overcast
9:16 AM 32.0 °F 23.6 °F 30.2 °F 93% 29.16 in 5.0 mi NNW 10.4 mph - N/A   Overcast
9:36 AM 33.8 °F 27.0 °F 30.2 °F 87% 29.16 in 10.0 mi NNW 8.1 mph - N/A   Overcast
9:56 AM 33.8 °F - 32.0 °F 93% 29.16 in 10.0 mi Calm Calm - N/A   Overcast
10:16 AM 33.8 °F - 32.0 °F 93% 29.16 in 10.0 mi Calm Calm - N/A   Overcast
10:36 AM 33.8 °F - 32.0 °F 93% 29.15 in 10.0 mi Calm Calm - N/A   Overcast
10:56 AM 33.8 °F 28.6 °F 32.0 °F 93% 29.16 in 10.0 mi NNW 5.8 mph - N/A   Overcast
11:16 AM 33.8 °F 30.8 °F 32.0 °F 93% 29.15 in 10.0 mi NW 3.5 mph - N/A   Overcast
11:36 AM 33.8 °F 30.8 °F 32.0 °F 93% 29.15 in 10.0 mi SE 3.5 mph - N/A   Overcast
11:56 AM 37.4 °F 30.8 °F 35.6 °F 93% 29.15 in 10.0 mi SSE 9.2 mph 18.4 mph N/A   Overcast
12:16 PM 37.4 °F 29.3 °F 35.6 °F 93% 29.14 in 10.0 mi SE 12.7 mph 17.3 mph N/A   Overcast
12:36 PM 37.4 °F 31.4 °F 33.8 °F 87% 29.14 in 10.0 mi SSE 8.1 mph - N/A   Overcast
12:56 PM 37.4 °F 32.8 °F 35.6 °F 93% 29.14 in 10.0 mi SSW 5.8 mph - N/A   Overcast
1:16 PM 37.4 °F 33.8 °F 35.6 °F 93% 29.13 in 10.0 mi SSW 4.6 mph - N/A   Overcast
1:36 PM 37.4 °F 33.8 °F 33.8 °F 87% 29.13 in 10.0 mi WSW 4.6 mph - N/A   Overcast
1:56 PM 35.6 °F 29.9 °F 32.0 °F 87% 29.12 in 10.0 mi NW 6.9 mph - N/A   Overcast
2:16 PM 33.8 °F 26.4 °F 32.0 °F 93% 29.11 in 10.0 mi NNW 9.2 mph - N/A   Overcast
2:36 PM 33.8 °F 26.4 °F 33.8 °F 100% 29.11 in 10.0 mi NW 9.2 mph - N/A   Overcast
2:56 PM 35.6 °F 31.7 °F 32.0 °F 87% 29.11 in 10.0 mi West 4.6 mph - N/A   Overcast
3:16 PM 33.8 °F 29.6 °F 32.0 °F 93% 29.10 in 10.0 mi NNW 4.6 mph - N/A   Overcast
3:36 PM 33.8 °F 27.7 °F 32.0 °F 93% 29.08 in 10.0 mi North 6.9 mph - N/A   Overcast
3:56 PM 33.8 °F - 33.8 °F 100% 29.08 in 10.0 mi Calm Calm - N/A   Overcast
4:16 PM 35.6 °F - 33.8 °F 93% 29.07 in 10.0 mi Calm Calm - N/A   Overcast
4:36 PM 35.6 °F - 33.8 °F 93% 29.07 in 10.0 mi Calm Calm - N/A   Overcast
4:56 PM 33.8 °F - 33.8 °F 100% 29.07 in 10.0 mi Calm Calm - N/A   Overcast
5:16 PM 33.8 °F 30.8 °F 33.8 °F 100% 29.07 in 9.0 mi North 3.5 mph - N/A   Overcast
5:36 PM 33.8 °F 28.6 °F 32.0 °F 93% 29.06 in 10.0 mi NNW 5.8 mph - N/A   Overcast
5:56 PM 33.8 °F 28.6 °F 32.0 °F 93% 29.06 in 10.0 mi NNW 5.8 mph - N/A   Overcast
6:16 PM 33.8 °F 28.6 °F 32.0 °F 93% 29.06 in 10.0 mi NNW 5.8 mph - N/A   Overcast
6:36 PM 33.8 °F 29.6 °F 32.0 °F 93% 29.05 in 10.0 mi NNW 4.6 mph - N/A   Overcast
6:56 PM 33.8 °F - 32.0 °F 93% 29.06 in 10.0 mi Calm Calm - N/A   Overcast
7:16 PM 33.8 °F - 32.0 °F 93% 29.06 in 7.0 mi Calm Calm - N/A   Overcast
7:36 PM 33.8 °F - 32.0 °F 93% 29.07 in 5.0 mi Calm Calm - N/A   Overcast
7:56 PM 33.8 °F - 32.0 °F 93% 29.07 in 7.0 mi Calm Calm - N/A   Overcast
8:16 PM 33.8 °F 29.6 °F 32.0 °F 93% 29.07 in 10.0 mi East 4.6 mph - N/A   Overcast
8:36 PM 33.8 °F - 32.0 °F 93% 29.08 in 10.0 mi Calm Calm - N/A   Overcast
8:56 PM 33.8 °F - 32.0 °F 93% 29.08 in 10.0 mi Calm Calm - N/A   Overcast
9:16 PM 33.8 °F - 33.8 °F 100% 29.09 in 10.0 mi Calm Calm - N/A   Overcast
9:36 PM 33.8 °F - 32.0 °F 93% 29.10 in 10.0 mi Calm Calm - N/A   Overcast
9:56 PM 33.8 °F - 32.0 °F 93% 29.11 in 10.0 mi Calm Calm - N/A   Overcast
10:16 PM 33.8 °F - 32.0 °F 93% 29.11 in 10.0 mi Calm Calm - N/A   Overcast
10:36 PM 33.8 °F - 32.0 °F 93% 29.12 in 10.0 mi Calm Calm - N/A   Overcast
10:56 PM 33.8 °F - 33.8 °F 100% 29.14 in 10.0 mi Calm Calm - N/A   Overcast
11:16 PM 35.6 °F 31.7 °F 35.6 °F 100% 29.14 in 10.0 mi ESE 4.6 mph - N/A   Overcast
11:36 PM 35.6 °F 30.7 °F 35.6 °F 100% 29.16 in 10.0 mi ESE 5.8 mph - N/A   Overcast
11:56 PM 35.6 °F 32.8 °F 33.8 °F 93% 29.16 in 10.0 mi ENE 3.5 mph - N/A   Overcast